Location: Bothwell
(42.3833°S, 147.0000°E)
Time: 02:43:53
(UTC+10:00)

XW-2C - Pass Details

Date: 27 April 2024
Orbit: 436 x 449 km, 97.5° (Epoch: 22 May)

Event Time Altitude Azimuth Distance (km) Brightness Sun altitude
Exits shadow 19:36:59 39° 239° (WSW) 724 ? -25.5°
Maximum altitude 19:37:16 40° 253° (WSW) 712 ? -25.5°
Drops below altitude 10° 19:40:33 10° 323° (NW) 1,620 ? -26.1°
Sets 19:42:38 0° 330° (NNW) 2,485 ? -26.5°
